SCP
-0 -0 0 0 0 0 0 0 0 0 0 0 0 0 0 0 0 0 0 0 0 0 0 0 0 0 0 0 0 -0 0 0 0 0 0 0 0 0 0 0 0 0 0 0 0 0 0
0 0 -0 0 0 0 0 0 0 0 0 0 0 0 0 0 0 0 0 0 0 0 0 0 0 0 0 0 0 0 0 0 0 0 0 0 0 0 0 0 0 0 0 0 0 0 0
-0 -0 -0 -0 -0 0 0 -0 -0 -0 -0 -0 -0 -0 -0 -0 -0 -0 -0 -0 0 0 0 0 0 0 -0 0 0 0 0 0 0 0 0 0 0 0 0 0 0 0 0 0 0 0 0
0 0 -0 0 -0 -0 -0 -0 -0 -0 -0 -0 -0 -0 -0 -0 -0 -0 -0 -0 0 0 -0 -0 0 0 -0 0 0 0 0 0 0 0 0 0 0 0 0 0 0 0 0 0 0 0 0
-0 -0 -0 -0 -0 -0 -0 -0 -0 -0 -0 -0 -0 -0 -0 -0 -0 -0 -0 0 0 0 0 0 0 0 -0 -0 0 0 0 0 0 0 0 0 0 0 0 0 0 0 0 0 0 0 0
-0 -0 -0 0 0 0 -0 -0 -0 -0 -0 -0 -0 -0 -0 -0 -0 -0 -0 0 -0 0 0 -0 0 0 0 0 0 0 -0 -0 0 0 0 0 0 0 0 0 0 0 0 0 0 0 0
-0 -0 -0 -0 -0 0 -0 -0 -0 -0 -0 -0 -0 -0 -0 -0 -0 0 0 0 0 0 0 0 0 0 0 0 -0 0 0 0 0 0 0 0 0 0 0 0 0 0 0 0 0 0 0
-0 -0 -0 -0 -0 -0 -0 -0 -0 -0 -0 -0 -0 -0 -0 -0 -0 -0 0 0 0 0 -0 0 0 0 0 0 0 0 0 0 0 0 0 0 0 0 0 0 0 0 0 0 0 0 0
-0 -0 -0 -0 -0 -0 -0 -0 -0 -0 -0 -0 -0 -0 -0 -0 -0 0 0 0 0 0 0 0 0 0 0 -0 0 0 0 0 0 0 0 0 0 0 0 0 0 0 0 0 0 0 0
0 0 -0 -0 -0 -0 -0 -0 -0 -0 -0 -0 -0 -0 -0 -0 0 0 0 0 0 0 0 0 0 0 -0 -0 -0 0 0 0 0 0 0 0 0 0 0 0 0 0 0 0 0 0 0
0 -0 -0 0 0 0 -0 -0 -0 -0 -0 -0 -0 -0 -0 -0 0 0 0 0 0 0 0 -0 0 0 -0 -0 -0 -0 0 0 0 0 0 0 0 0 0 0 0 0 0 0 0 0 0
0 -0 -0 0 -0 0 0 0 0 0 -0 -0 -0 -0 -0 0 0 0 0 0 0 0 0 0 -0 -0 -0 -0 -0 0 0 0 0 0 0 0 0 0 0 0 0 0 0 0 0 0 0
0 0 -0 -0 -0 0 0 0 0 0 0 0 -0 0 -0 0 0 0 0 0 0 0 0 0 0 0 -0 -0 0 0 0 -0 0 0 0 0 0 0 0 0 0 0 0 0 0 0 0
0 0 0 0 0 0 0 0 0 0 0 0 0 0 0 0 0 0 0 0 0 0 0 0 -0 -0 -0 -0 0 0 0 0 -0 0 0 0 0 0 0 0 0 0 0 0 0 0 0
0 0 0 0 0 0 0 0 0 0 0 0 0 0 0 0 0 0 0 0 0 0 0 0 -0 0 -0 0 0 0 0 0 -0 0 0 0 0 0 0 0 0 0 0 0 0 0 0
0 0 0 0 0 0 0 0 0 0 0 0 0 0 0 0 0 0 0 0 0 0 0 0 0 0 -0 -0 0 0 0 0 0 0 0 0 0 0 0 0 0 0 0 0 0 0 0
0 0 0 0 0 0 0 0 0 0 0 0 0 0 0 0 0 0 0 0 0 0 0 0 0 0 -0 -0 0 -0 0 0 0 0 0 0 0 0 0 0 0 0 0 0 0 0 0
0 0 0 0 0 0 0 0 0 0 0 0 0 0 0 0 0 0 0 0 0 0 0 0 0 -0 -0 -0 -0 -0 -0 -0 -0 -0 0 0 0 0 0 0 0 0 0 0 0 0 0
0 0 0 0 0 0 0 0 0 0 0 0 0 0 0 0 0 0 0 0 0 0 0 0 0 0 -0 -0 -0 -0 -0 -0 -0 0 0 0 0 -0 -0 0 0 0 0 0 0 0 0
0 0 0 0 0 0 0 0 0 0 0 0 0 0 0 0 0 0 0 0 0 0 0 0 0 0 -0 -0 -0 -0 -0 -0 -0 -0 -0 0 0 0 0 0 0 0 0 0 0 0 0
0 0 0 0 0 0 0 0 0 0 0 0 0 0 0 0 0 0 0 0 0 0 0 0 0 -0 -0 0 -0 0 -0 -0 -0 -0 0 0 0 0 0 0 0 0 0 0 0 0 0
0 0 0 0 -0 -0 0 0 0 0 0 0 0 0 0 0 0 0 0 0 0 0 0 0 0 -0 -0 0 0 -0 -0 -0 -0 -0 0 0 0 0 0 -0 0 0 0 0 0 0 0
0 0 0 0 0 0 0 0 0 0 0 0 0 0 0 0 0 0 0 0 0 0 0 0 0 0 0 0 0 -0 -0 -0 -0 0 -0 0 0 -0 -0 -0 0 0 0 0 0 0 0
0 0 0 0 0 0 0 0 0 0 0 0 0 0 0 0 0 0 0 0 0 0 0 0 0 0 0 -0 -0 -0 -0 -0 -0 -0 -0 0 0 -0 0 0 0 0 0 0 0 0 0
0 0 0 0 0 0 0 0 0 0 0 0 0 0 0 0 0 0 0 0 0 0 0 0 0 0 0 0 0 0 -0 -0 -0 -0 -0 -0 -0 0 0 0 0 0 0 0 0 0 0
0 0 0 0 0 0 0 0 0 0 0 0 0 0 0 0 0 0 0 0 0 0 0 0 0 0 0 -0 -0 -0 -0 0 0 0 0 -0 -0 -0 0 0 0 0 0 0 0 0 0
0 0 0 0 0 0 0 0 0 0 0 0 0 0 0 0 0 0 0 0 0 0 0 0 0 0 0 -0 -0 0 0 0 0 0 0 0 0 0 0 0 -0 -0 0 0 0 0 0
0 0 0 0 0 0 0 0 0 0 0 0 0 0 0 0 0 0 0 0 0 0 0 0 0 0 0 0 0 0 0 0 0 0 -0 0 0 0 0 0 0 -0 0 0 0 0 0
0 0 0 0 0 0 0 0 0 0 0 0 0 0 0 0 0 0 0 -0 -0 -0 0 0 0 0 0 0 0 0 0 0 0 0 0 -0 0 0 0 0 0 0 0 0 0 0 0
Wind_Speed_500mb
35 36 34 36 36 35 35 34 36 36 37 38 38 38 38 38 39 39 40 41 42 42 43 43 43 45 46 22 52 23 31 16 4 23 58 60 52 30 14 12 28 44 25 38 49 64 64
37 39 39 38 38 36 35 34 35 35 36 38 39 40 42 43 42 42 43 44 44 45 47 45 41 41 25 25 33 25 39 49 23 18 30 54 24 37 13 12 18 12 19 39 48 57 59
40 41 41 40 40 40 39 38 37 37 38 39 39 42 43 42 41 39 40 43 42 39 41 44 39 29 29 56 40 35 41 41 35 28 31 47 50 25 20 8 49 45 20 32 44 31 26
37 36 37 37 38 39 39 40 40 43 46 47 49 51 52 50 44 42 43 40 22 26 33 34 32 21 25 52 24 30 20 48 49 36 26 28 29 29 52 25 21 5 12 36 41 36 28
37 37 38 40 42 42 43 45 47 49 51 53 56 56 57 54 50 42 35 39 32 33 29 28 31 17 30 16 20 14 15 24 46 37 25 23 20 21 12 7 3 12 32 39 42 16 10
39 40 40 41 43 45 47 48 50 52 53 54 54 54 60 57 52 41 38 44 36 19 34 28 13 17 20 17 10 39 35 12 10 30 32 21 13 11 8 12 37 22 44 32 27 13 33
38 40 41 44 45 46 48 49 51 52 54 54 55 56 57 47 40 28 40 58 58 15 61 30 54 54 82 89 93 69 24 29 26 17 13 11 8 38 40 31 18 16 21 28 4 23 33
40 42 45 48 49 49 49 51 52 53 54 52 50 50 47 35 24 24 31 48 44 37 34 66 43 59 65 67 66 78 45 18 7 9 8 9 39 18 18 11 21 25 29 38 13 18 19
42 43 45 48 50 51 51 51 52 54 54 50 46 46 40 30 20 24 26 36 32 42 11 32 55 37 52 18 45 69 42 29 12 16 14 21 12 18 31 20 32 30 36 31 22 23 43
42 44 46 48 49 50 52 53 56 57 56 50 44 38 31 28 13 36 34 44 26 36 8 13 22 16 27 14 7 23 38 42 10 19 18 21 21 27 23 35 32 38 23 23 34 25 28
43 45 46 48 48 49 54 58 60 60 57 51 40 29 18 19 23 35 45 35 29 10 6 18 23 21 38 32 41 7 19 22 39 39 15 25 17 2 21 33 27 39 27 22 33 19 18
46 46 48 48 47 50 56 62 64 63 58 52 41 28 17 17 24 34 43 39 9 9 5 14 14 26 22 36 41 29 15 15 18 9 31 36 30 23 24 25 19 13 17 25 32 5 19
49 49 50 50 50 53 57 63 67 64 59 53 42 28 18 20 25 33 42 16 9 9 8 16 43 36 16 22 24 22 11 4 7 14 10 13 26 28 32 25 22 11 2 3 6 10 32
51 52 52 54 55 55 57 64 69 66 61 60 42 23 14 18 22 34 35 10 11 6 11 30 35 39 8 16 13 20 21 11 20 4 10 5 9 14 15 18 17 13 17 10 17 8 9
52 52 54 56 58 59 59 61 68 68 60 62 48 17 16 15 19 21 16 9 10 16 13 25 29 20 9 12 12 10 10 6 8 7 10 5 10 5 16 8 5 11 16 15 9 30 3
52 53 55 57 59 63 63 60 67 67 60 55 43 20 10 11 12 16 9 4 7 26 32 26 2 18 18 13 10 14 7 7 13 17 6 7 7 11 11 6 7 12 7 3 4 11 20
52 52 54 57 60 64 65 60 69 69 60 52 20 11 10 8 13 4 4 9 20 37 29 14 9 10 21 15 5 6 9 8 8 12 12 5 2 7 8 7 9 3 6 6 9 7 15
51 52 54 55 59 63 65 60 66 70 65 54 19 5 14 10 6 4 1 10 38 32 40 7 9 9 14 13 6 7 8 7 8 5 9 1 1 7 16 27 32 20 11 9 6 16 9
50 51 53 56 59 61 63 61 59 63 61 57 33 12 12 20 6 7 14 23 25 27 23 6 9 9 10 8 9 10 4 14 22 6 7 7 2 6 20 11 4 11 9 4 8 14 37
50 52 54 56 59 61 62 62 58 54 53 40 16 7 13 16 28 6 14 13 18 30 29 23 21 7 12 14 5 12 17 10 12 14 13 9 8 13 15 11 6 10 16 16 10 7 20
50 52 54 56 58 60 59 62 61 54 47 26 13 5 9 8 13 15 17 13 32 17 10 23 8 21 26 10 12 7 10 16 19 30 8 13 10 15 28 32 31 31 32 27 24 19 7
50 53 53 56 57 57 55 56 61 57 47 13 16 13 17 27 26 9 10 6 28 24 14 14 17 36 24 15 18 23 21 12 16 11 13 8 8 10 26 31 35 39 38 26 32 25 18
52 54 55 54 56 56 52 51 54 56 48 15 23 8 16 15 11 9 5 24 26 32 21 25 28 27 25 25 37 53 54 59 29 13 11 12 7 4 13 25 27 17 31 35 29 17 8
54 52 53 55 53 54 51 48 47 48 40 33 28 19 10 10 14 18 33 30 27 32 18 40 38 10 30 74 74 52 45 49 38 35 36 13 5 7 9 10 8 9 13 3 14 11 9
54 52 51 56 52 52 54 47 44 44 40 37 27 12 10 11 25 34 18 24 38 47 17 32 39 51 54 30 8 12 9 10 11 7 20 27 13 7 7 5 8 2 10 14 16 3 17
53 55 50 50 53 58 59 44 40 41 42 45 32 9 19 18 8 16 38 30 17 16 18 23 45 36 34 5 5 7 6 8 6 13 11 21 26 8 5 9 4 7 21 43 19 3 19
51 57 57 55 51 56 59 43 37 38 37 39 37 10 17 24 39 25 15 17 20 10 11 18 33 20 29 9 7 6 6 14 8 13 9 5 5 15 19 12 6 9 40 53 15 5 51
55 57 57 60 55 54 54 48 39 36 35 35 43 8 15 24 64 67 53 39 36 30 7 22 18 14 10 12 7 7 4 6 9 7 14 7 8 5 7 4 8 38 6 12 14 38 47
63 59 58 65 61 56 51 49 39 35 33 34 49 39 29 39 53 71 74 58 52 36 43 8 4 7 5 5 4 5 5 6 8 7 10 5 7 7 5 4 12 22 28 36 34 52 36
Wind_Direction_500mb
29 24 19 19 17 17 16 16 15 12 9 5 1 356 352 347 342 337 331 326 322 318 314 312 312 311 307 278 254 243 258 301 342 325 214 212 211 209 197 216 237 250 255 240 242 251 253
31 33 31 30 28 26 24 21 17 12 7 2 357 352 349 344 336 333 327 322 319 314 310 303 304 304 291 277 300 303 269 250 241 255 232 207 217 224 268 228 225 265 260 259 253 250 256
34 34 32 31 28 25 21 16 12 8 3 0 357 354 350 341 335 329 323 321 319 318 309 300 301 296 267 265 302 288 263 251 224 231 231 223 215 208 235 289 255 263 280 280 259 253 262
32 29 27 26 24 20 15 10 4 360 358 357 356 356 352 347 341 334 335 340 346 334 302 301 297 286 262 308 297 279 261 241 228 238 237 219 219 246 239 268 293 258 234 247 250 244 251
25 23 21 20 17 15 11 6 2 360 358 356 354 352 350 349 347 340 354 352 344 316 308 302 297 302 270 298 296 338 298 262 226 230 235 242 239 234 214 175 312 211 242 238 250 223 218
19 17 12 11 12 9 6 4 0 358 355 353 349 348 353 359 356 352 6 9 13 68 13 345 330 318 285 309 299 320 301 293 202 233 247 249 239 208 181 173 215 215 222 237 254 213 225
12 9 4 3 5 4 3 1 357 354 353 349 347 352 353 352 354 1 8 15 14 345 323 305 284 264 273 284 282 286 289 337 282 263 190 208 195 223 219 228 272 289 269 255 230 202 223
8 7 4 3 1 359 359 356 353 349 348 346 345 348 348 348 358 358 11 15 1 337 314 314 308 290 286 279 272 279 276 294 295 236 186 206 231 243 259 259 226 243 266 267 290 286 245
6 3 1 359 356 353 354 354 350 345 342 342 344 349 349 358 16 0 353 348 344 339 302 324 326 319 322 298 242 259 266 279 250 261 248 220 220 218 242 247 249 244 234 259 264 303 289
3 1 359 358 356 355 355 353 348 343 340 340 342 349 354 11 9 353 343 347 342 334 49 290 309 300 327 295 245 261 259 248 229 222 246 256 236 248 259 226 236 248 250 256 246 257 261
6 4 3 1 0 359 356 353 350 346 342 338 340 341 7 1 351 345 343 346 330 313 84 304 295 343 3 10 353 338 302 275 214 234 194 237 288 226 230 241 227 250 251 241 235 239 244
7 6 3 3 1 359 357 356 352 349 346 339 339 330 333 331 335 345 343 334 12 50 319 310 300 346 12 353 346 8 348 346 342 256 234 235 218 247 255 268 260 285 253 235 256 212 252
8 7 4 1 358 355 356 357 354 351 349 341 340 326 296 313 333 348 341 341 42 88 286 326 331 339 9 347 352 346 311 62 64 335 356 244 229 234 244 254 264 223 34 250 251 199 234
7 6 4 1 357 353 352 355 354 353 350 341 344 322 299 311 341 355 340 44 58 291 325 322 339 319 336 7 337 331 355 358 159 131 339 21 320 202 214 208 230 184 171 197 209 207 234
3 4 3 2 0 357 352 352 353 354 353 342 345 321 313 316 339 359 352 41 202 329 265 336 330 291 332 20 336 330 344 288 146 123 173 251 233 337 313 287 144 320 217 200 300 281 244
359 1 1 1 360 360 357 354 353 355 357 345 343 347 340 320 319 334 62 266 274 316 323 356 193 294 355 338 346 338 340 348 359 31 3 282 280 247 288 0 234 181 247 165 215 199 239
358 357 359 360 358 360 359 358 355 355 1 358 7 356 8 301 300 334 131 235 294 320 353 313 310 331 342 317 255 295 328 360 17 336 325 307 194 306 347 216 218 335 249 206 176 198 235
357 357 357 357 357 358 0 1 359 355 356 10 359 20 360 321 317 14 272 280 321 319 334 311 270 333 343 315 305 320 329 273 334 291 301 75 213 267 254 265 264 252 264 165 211 243 250
355 357 357 356 355 356 357 359 2 0 355 354 342 312 37 336 30 319 309 317 304 314 318 292 300 314 346 331 326 270 239 287 295 293 301 354 340 332 322 298 315 237 164 29 289 229 241
352 349 350 352 354 354 354 354 358 2 353 350 343 347 340 1 355 22 327 314 322 314 301 338 299 328 348 319 286 273 288 273 281 229 262 254 227 205 230 240 21 279 301 305 280 278 248
347 346 345 345 347 349 352 352 352 360 2 2 6 320 15 306 324 315 303 285 319 328 301 314 313 331 324 301 299 244 299 296 294 287 205 172 237 225 250 262 269 267 256 254 249 248 242
340 341 344 343 343 346 349 351 353 354 5 27 1 351 325 293 282 308 327 323 319 321 312 303 317 316 321 298 281 294 277 272 249 283 178 191 248 252 283 271 256 250 247 244 244 247 245
335 335 336 339 339 343 345 348 351 353 358 7 349 329 309 292 297 326 274 321 309 327 307 283 305 310 308 289 292 281 265 264 245 219 203 187 218 252 260 290 246 227 235 241 234 187 191
331 332 332 333 336 337 340 343 346 352 354 350 351 325 289 284 314 303 307 308 315 312 289 297 318 309 297 304 303 288 259 247 240 236 229 235 224 240 276 278 210 137 48 167 221 191 165
328 329 333 333 332 334 334 334 338 339 343 335 340 295 280 280 304 295 293 313 310 311 295 294 303 308 320 312 312 331 343 2 37 331 216 210 202 265 263 277 287 24 21 343 1 296 42
325 323 324 331 327 329 328 324 327 332 332 331 350 277 273 292 242 303 312 291 300 313 316 305 328 338 354 325 337 346 343 302 316 312 317 221 198 227 303 288 277 198 313 308 282 269 357
318 320 319 318 320 322 327 320 320 323 328 323 335 317 276 273 281 267 291 304 294 287 294 305 335 341 3 355 10 353 309 340 331 337 333 23 219 236 252 249 240 27 309 292 178 348 322
316 317 316 319 314 318 318 318 317 316 321 313 318 317 268 259 279 278 274 267 276 278 279 313 339 4 339 15 356 332 306 317 310 300 330 352 304 307 308 340 332 345 343 60 11 332 307
316 316 315 316 316 311 310 315 309 311 313 309 306 318 298 265 262 285 288 282 268 281 258 265 270 271 300 321 333 300 297 307 304 324 338 5 357 318 342 301 273 4 347 358 353 324 313
Wind_Speed_850mb
35 36 34 36 36 35 35 34 36 36 37 38 38 38 38 38 39 39 40 41 42 42 43 43 43 45 46 22 52 23 31 16 4 23 58 60 52 30 14 12 28 44 25 38 49 64 64
37 39 39 38 38 36 35 34 35 35 36 38 39 40 42 43 42 42 43 44 44 45 47 45 41 41 25 25 33 25 39 49 23 18 30 54 24 37 13 12 18 12 19 39 48 57 59
40 41 41 40 40 40 39 38 37 37 38 39 39 42 43 42 41 39 40 43 42 39 41 44 39 29 29 56 40 35 41 41 35 28 31 47 50 25 20 8 49 45 20 32 44 31 26
37 36 37 37 38 39 39 40 40 43 46 47 49 51 52 50 44 42 43 40 22 26 33 34 32 21 25 52 24 30 20 48 49 36 26 28 29 29 52 25 21 5 12 36 41 36 28
37 37 38 40 42 42 43 45 47 49 51 53 56 56 57 54 50 42 35 39 32 33 29 28 31 17 30 16 20 14 15 24 46 37 25 23 20 21 12 7 3 12 32 39 42 16 10
39 40 40 41 43 45 47 48 50 52 53 54 54 54 60 57 52 41 38 44 36 19 34 28 13 17 20 17 10 39 35 12 10 30 32 21 13 11 8 12 37 22 44 32 27 13 33
38 40 41 44 45 46 48 49 51 52 54 54 55 56 57 47 40 28 40 58 58 15 61 30 54 54 82 89 93 69 24 29 26 17 13 11 8 38 40 31 18 16 21 28 4 23 33
40 42 45 48 49 49 49 51 52 53 54 52 50 50 47 35 24 24 31 48 44 37 34 66 43 59 65 67 66 78 45 18 7 9 8 9 39 18 18 11 21 25 29 38 13 18 19
42 43 45 48 50 51 51 51 52 54 54 50 46 46 40 30 20 24 26 36 32 42 11 32 55 37 52 18 45 69 42 29 12 16 14 21 12 18 31 20 32 30 36 31 22 23 43
42 44 46 48 49 50 52 53 56 57 56 50 44 38 31 28 13 36 34 44 26 36 8 13 22 16 27 14 7 23 38 42 10 19 18 21 21 27 23 35 32 38 23 23 34 25 28
43 45 46 48 48 49 54 58 60 60 57 51 40 29 18 19 23 35 45 35 29 10 6 18 23 21 38 32 41 7 19 22 39 39 15 25 17 2 21 33 27 39 27 22 33 19 18
46 46 48 48 47 50 56 62 64 63 58 52 41 28 17 17 24 34 43 39 9 9 5 14 14 26 22 36 41 29 15 15 18 9 31 36 30 23 24 25 19 13 17 25 32 5 19
49 49 50 50 50 53 57 63 67 64 59 53 42 28 18 20 25 33 42 16 9 9 8 16 43 36 16 22 24 22 11 4 7 14 10 13 26 28 32 25 22 11 2 3 6 10 32
51 52 52 54 55 55 57 64 69 66 61 60 42 23 14 18 22 34 35 10 11 6 11 30 35 39 8 16 13 20 21 11 20 4 10 5 9 14 15 18 17 13 17 10 17 8 9
52 52 54 56 58 59 59 61 68 68 60 62 48 17 16 15 19 21 16 9 10 16 13 25 29 20 9 12 12 10 10 6 8 7 10 5 10 5 16 8 5 11 16 15 9 30 3
52 53 55 57 59 63 63 60 67 67 60 55 43 20 10 11 12 16 9 4 7 26 32 26 2 18 18 13 10 14 7 7 13 17 6 7 7 11 11 6 7 12 7 3 4 11 20
52 52 54 57 60 64 65 60 69 69 60 52 20 11 10 8 13 4 4 9 20 37 29 14 9 10 21 15 5 6 9 8 8 12 12 5 2 7 8 7 9 3 6 6 9 7 15
51 52 54 55 59 63 65 60 66 70 65 54 19 5 14 10 6 4 1 10 38 32 40 7 9 9 14 13 6 7 8 7 8 5 9 1 1 7 16 27 32 20 11 9 6 16 9
50 51 53 56 59 61 63 61 59 63 61 57 33 12 12 20 6 7 14 23 25 27 23 6 9 9 10 8 9 10 4 14 22 6 7 7 2 6 20 11 4 11 9 4 8 14 37
50 52 54 56 59 61 62 62 58 54 53 40 16 7 13 16 28 6 14 13 18 30 29 23 21 7 12 14 5 12 17 10 12 14 13 9 8 13 15 11 6 10 16 16 10 7 20
50 52 54 56 58 60 59 62 61 54 47 26 13 5 9 8 13 15 17 13 32 17 10 23 8 21 26 10 12 7 10 16 19 30 8 13 10 15 28 32 31 31 32 27 24 19 7
50 53 53 56 57 57 55 56 61 57 47 13 16 13 17 27 26 9 10 6 28 24 14 14 17 36 24 15 18 23 21 12 16 11 13 8 8 10 26 31 35 39 38 26 32 25 18
52 54 55 54 56 56 52 51 54 56 48 15 23 8 16 15 11 9 5 24 26 32 21 25 28 27 25 25 37 53 54 59 29 13 11 12 7 4 13 25 27 17 31 35 29 17 8
54 52 53 55 53 54 51 48 47 48 40 33 28 19 10 10 14 18 33 30 27 32 18 40 38 10 30 74 74 52 45 49 38 35 36 13 5 7 9 10 8 9 13 3 14 11 9
54 52 51 56 52 52 54 47 44 44 40 37 27 12 10 11 25 34 18 24 38 47 17 32 39 51 54 30 8 12 9 10 11 7 20 27 13 7 7 5 8 2 10 14 16 3 17
53 55 50 50 53 58 59 44 40 41 42 45 32 9 19 18 8 16 38 30 17 16 18 23 45 36 34 5 5 7 6 8 6 13 11 21 26 8 5 9 4 7 21 43 19 3 19
51 57 57 55 51 56 59 43 37 38 37 39 37 10 17 24 39 25 15 17 20 10 11 18 33 20 29 9 7 6 6 14 8 13 9 5 5 15 19 12 6 9 40 53 15 5 51
55 57 57 60 55 54 54 48 39 36 35 35 43 8 15 24 64 67 53 39 36 30 7 22 18 14 10 12 7 7 4 6 9 7 14 7 8 5 7 4 8 38 6 12 14 38 47
63 59 58 65 61 56 51 49 39 35 33 34 49 39 29 39 53 71 74 58 52 36 43 8 4 7 5 5 4 5 5 6 8 7 10 5 7 7 5 4 12 22 28 36 34 52 36
Wind_Direction_850mb
29 24 19 19 17 17 16 16 15 12 9 5 1 356 352 347 342 337 331 326 322 318 314 312 312 311 307 278 254 243 258 301 342 325 214 212 211 209 197 216 237 250 255 240 242 251 253
31 33 31 30 28 26 24 21 17 12 7 2 357 352 349 344 336 333 327 322 319 314 310 303 304 304 291 277 300 303 269 250 241 255 232 207 217 224 268 228 225 265 260 259 253 250 256
34 34 32 31 28 25 21 16 12 8 3 0 357 354 350 341 335 329 323 321 319 318 309 300 301 296 267 265 302 288 263 251 224 231 231 223 215 208 235 289 255 263 280 280 259 253 262
32 29 27 26 24 20 15 10 4 360 358 357 356 356 352 347 341 334 335 340 346 334 302 301 297 286 262 308 297 279 261 241 228 238 237 219 219 246 239 268 293 258 234 247 250 244 251
25 23 21 20 17 15 11 6 2 360 358 356 354 352 350 349 347 340 354 352 344 316 308 302 297 302 270 298 296 338 298 262 226 230 235 242 239 234 214 175 312 211 242 238 250 223 218
19 17 12 11 12 9 6 4 0 358 355 353 349 348 353 359 356 352 6 9 13 68 13 345 330 318 285 309 299 320 301 293 202 233 247 249 239 208 181 173 215 215 222 237 254 213 225
12 9 4 3 5 4 3 1 357 354 353 349 347 352 353 352 354 1 8 15 14 345 323 305 284 264 273 284 282 286 289 337 282 263 190 208 195 223 219 228 272 289 269 255 230 202 223
8 7 4 3 1 359 359 356 353 349 348 346 345 348 348 348 358 358 11 15 1 337 314 314 308 290 286 279 272 279 276 294 295 236 186 206 231 243 259 259 226 243 266 267 290 286 245
6 3 1 359 356 353 354 354 350 345 342 342 344 349 349 358 16 0 353 348 344 339 302 324 326 319 322 298 242 259 266 279 250 261 248 220 220 218 242 247 249 244 234 259 264 303 289
3 1 359 358 356 355 355 353 348 343 340 340 342 349 354 11 9 353 343 347 342 334 49 290 309 300 327 295 245 261 259 248 229 222 246 256 236 248 259 226 236 248 250 256 246 257 261
6 4 3 1 0 359 356 353 350 346 342 338 340 341 7 1 351 345 343 346 330 313 84 304 295 343 3 10 353 338 302 275 214 234 194 237 288 226 230 241 227 250 251 241 235 239 244
7 6 3 3 1 359 357 356 352 349 346 339 339 330 333 331 335 345 343 334 12 50 319 310 300 346 12 353 346 8 348 346 342 256 234 235 218 247 255 268 260 285 253 235 256 212 252
8 7 4 1 358 355 356 357 354 351 349 341 340 326 296 313 333 348 341 341 42 88 286 326 331 339 9 347 352 346 311 62 64 335 356 244 229 234 244 254 264 223 34 250 251 199 234
7 6 4 1 357 353 352 355 354 353 350 341 344 322 299 311 341 355 340 44 58 291 325 322 339 319 336 7 337 331 355 358 159 131 339 21 320 202 214 208 230 184 171 197 209 207 234
3 4 3 2 0 357 352 352 353 354 353 342 345 321 313 316 339 359 352 41 202 329 265 336 330 291 332 20 336 330 344 288 146 123 173 251 233 337 313 287 144 320 217 200 300 281 244
359 1 1 1 360 360 357 354 353 355 357 345 343 347 340 320 319 334 62 266 274 316 323 356 193 294 355 338 346 338 340 348 359 31 3 282 280 247 288 0 234 181 247 165 215 199 239
358 357 359 360 358 360 359 358 355 355 1 358 7 356 8 301 300 334 131 235 294 320 353 313 310 331 342 317 255 295 328 360 17 336 325 307 194 306 347 216 218 335 249 206 176 198 235
357 357 357 357 357 358 0 1 359 355 356 10 359 20 360 321 317 14 272 280 321 319 334 311 270 333 343 315 305 320 329 273 334 291 301 75 213 267 254 265 264 252 264 165 211 243 250
355 357 357 356 355 356 357 359 2 0 355 354 342 312 37 336 30 319 309 317 304 314 318 292 300 314 346 331 326 270 239 287 295 293 301 354 340 332 322 298 315 237 164 29 289 229 241
352 349 350 352 354 354 354 354 358 2 353 350 343 347 340 1 355 22 327 314 322 314 301 338 299 328 348 319 286 273 288 273 281 229 262 254 227 205 230 240 21 279 301 305 280 278 248
347 346 345 345 347 349 352 352 352 360 2 2 6 320 15 306 324 315 303 285 319 328 301 314 313 331 324 301 299 244 299 296 294 287 205 172 237 225 250 262 269 267 256 254 249 248 242
340 341 344 343 343 346 349 351 353 354 5 27 1 351 325 293 282 308 327 323 319 321 312 303 317 316 321 298 281 294 277 272 249 283 178 191 248 252 283 271 256 250 247 244 244 247 245
335 335 336 339 339 343 345 348 351 353 358 7 349 329 309 292 297 326 274 321 309 327 307 283 305 310 308 289 292 281 265 264 245 219 203 187 218 252 260 290 246 227 235 241 234 187 191
331 332 332 333 336 337 340 343 346 352 354 350 351 325 289 284 314 303 307 308 315 312 289 297 318 309 297 304 303 288 259 247 240 236 229 235 224 240 276 278 210 137 48 167 221 191 165
328 329 333 333 332 334 334 334 338 339 343 335 340 295 280 280 304 295 293 313 310 311 295 294 303 308 320 312 312 331 343 2 37 331 216 210 202 265 263 277 287 24 21 343 1 296 42
325 323 324 331 327 329 328 324 327 332 332 331 350 277 273 292 242 303 312 291 300 313 316 305 328 338 354 325 337 346 343 302 316 312 317 221 198 227 303 288 277 198 313 308 282 269 357
318 320 319 318 320 322 327 320 320 323 328 323 335 317 276 273 281 267 291 304 294 287 294 305 335 341 3 355 10 353 309 340 331 337 333 23 219 236 252 249 240 27 309 292 178 348 322
316 317 316 319 314 318 318 318 317 316 321 313 318 317 268 259 279 278 274 267 276 278 279 313 339 4 339 15 356 332 306 317 310 300 330 352 304 307 308 340 332 345 343 60 11 332 307
316 316 315 316 316 311 310 315 309 311 313 309 306 318 298 265 262 285 288 282 268 281 258 265 270 271 300 321 333 300 297 307 304 324 338 5 357 318 342 301 273 4 347 358 353 324 313